Location: Newark
(59.4564°N, 26.6917°E)
Time: 08:46:54
(UTC+00:00)

S-56A Canister/Altair - Pass Details

Date: 20 November 2019
Orbit: 633 x 2500 km, 38.9° (Epoch: 12 December)

Event Time Altitude Azimuth Distance (km) Brightness Sun altitude
Rises 14:56:19 0° 213° (SSW) 5,116 12.8 -9.3°
Reaches altitude 10° 15:02:39 10° 188° (S) 3,626 11.4 -10.0°
Maximum altitude 15:05:46 12° 167° (SSE) 3,193 10.8 -10.4°
Drops below altitude 10° 15:08:32 10° 146° (SE) 3,126 10.5 -10.7°
Enters shadow 15:12:54 - 117° (ESE) 3,688 10.6 -11.3°
Sets 15:12:59 0° 117° (ESE) 3,703 - -11.3°
